Hourly Data Report for August 15, 2022

MIRAMICHI RCS
NEW BRUNSWICK
Current Station Operator: ECCC - MSC

47°00'34.000" N
65°27'54.000" W
33.00 m
8100989
71744
ACQ

Download Data

Hourly Data (August 2022)
Hourly Data Report for August 15, 2022
TIME
LST
Temp Definition
°C
Dew Point Definition
°C
Rel Hum Definition
%
Precip. Amount Definition
mm

Wind Dir Definition
10's deg

Wind Spd Definition
km/h
Visibility Definition
km
Stn Press Definition
kPa
Hmdx Definition


Wind Chill Definition


Weather Definition


00:00 14.7 14.3 97 0.0 26 8   101.12     LegendNANA
01:00 15.1 14.5 96 0.0 26 9   101.11     LegendNANA
02:00 14.0 13.5 97 0.0 25 4   101.10     LegendNANA
03:00 14.2 13.7 97 0.0 25 8   101.12     LegendNANA
04:00 13.3 12.8 97 0.0 27 8   101.11     LegendNANA
05:00 12.7 12.3 98 0.0 27 5   101.14     LegendNANA
06:00 13.1 12.7 97 0.0 26 8   101.16     LegendNANA
07:00 14.8 13.8 94 0.0 25 5   101.18     LegendNANA
08:00 17.0 15.0 88 0.0 25 10   101.17     LegendNANA
09:00 19.5 16.1 80 0.0 24 10   101.18     LegendNANA
10:00 21.5 16.2 72 0.0 25 7   101.19 26   LegendNANA
11:00 23.1 15.7 63 0.0 28 4   101.19 28   LegendNANA
12:00 24.6 15.4 57 0.0 24 4   101.18 29   LegendNANA
13:00 26.1 15.3 52 0.0 20 8   101.17 30   LegendNANA
14:00 24.7 15.1 55 0.0 24 8   101.17 29   LegendNANA
15:00 25.7 13.9 48 0.0 22 10   101.17 29   LegendNANA
16:00 25.9 15.2 52 0.0 24 9   101.16 30   LegendNANA
17:00 26.5 13.4 45 0.0 23 10   101.16 30   LegendNANA
18:00 26.6 13.4 44 0.0 22 6   101.19 30   LegendNANA
19:00 25.1 15.0 54 0.0 26 2   101.22 29   LegendNANA
20:00 20.7 17.4 82 0.0 22 1   101.28 26   LegendNANA
21:00 19.1 15.6 80 0.0 25 5   101.33     LegendNANA
22:00 18.8 15.4 80 0.0 28 4   101.36     LegendNANA
23:00 16.6 14.9 90 0.0 30 4   101.34     LegendNANA

Notes on Data Quality.

Legend

  • E = Estimated
  • M = Missing
  • NA = Not Available*
  • [empty] = Indicates an unobserved value
Date modified: